Regional Weather Roundup
Issued by NWS

Home | Current Version | Previous Version | Text Only | Print | Product List | Glossary Off
Versions: 1 2 3 4 5 6 7 8 9 10 11 12 13 14 15 16 17 18 19 20 21 22 23 24 25 26 27 28 29 30 31 32 33 34 35 36 37 38 39 40 41 42 43 44 45 46 47 48 49 50

000
ASUS43 KMPX 232301
RWRMN
WEATHER ROUNDUP FOR MINNESOTA
NATIONAL WEATHER SERVICE TWIN CITIES/CHANHASSEN MN
600 PM CDT WED JUL 23 2014


NOTE: "FAIR" INDICATES FEW OR NO CLOUDS BELOW 12,000 FEET WITH NO
SIGNIFICANT WEATHER AND/OR OBSTRUCTIONS TO VISIBILITY. N/A MEANS
CURRENT SKY AND/OR WEATHER CONDITIONS ARE NOT AVAILABLE.

MNZ060>063-068>070-240000-
   Twin Cities Metro

CITY           SKY/WX    TMP DP  RH WIND       PRES   REMARKS
TWIN CITIES    MOSUNNY   81  49  32 NW10      30.18F
ST PAUL        SUNNY     79  53  40 N12       30.18F
CRYSTAL        MOSUNNY   81  49  32 N8        30.17F
BLAINE         MOSUNNY   81  54  39 N6        30.19F
LAKEVILLE      MOSUNNY   77  54  44 W7        30.18F
EDEN PRAIRIE   SUNNY     80  52  37 N12       30.18F
SOUTH ST PAUL  SUNNY     80  49  34 N8        30.17F
LAKE ELMO      FAIR      77  54  44 NW6       30.19F
$$
MNZ001>005-007-008-013>017-022>024-027-028-240000-
   Northwest Minnesota

CITY           SKY/WX    TMP DP  RH WIND       PRES   REMARKS
BEMIDJI        MOSUNNY   73  54  50 W8        30.23F
HALLOCK        SUNNY     73  50  43 CALM      30.23F
ROSEAU         SUNNY     72  55  56 SE3       30.23F
WARROAD        SUNNY     70  54  56 E6        30.25F
THIEF RVR FALL MOSUNNY   72  55  56 NW7       30.23F
CROOKSTON      SUNNY     73  57  56 NW8       30.24F
FOSSTON        PTSUNNY   75  57  53 N5        30.24F
DETROIT LAKES  SUNNY     72  55  56 N7        30.25F
MOORHEAD       MOSUNNY   77  61  57 N7        30.23F
PARK RAPIDS    PTSUNNY   75  51  43 VRB5      30.23F
$$
MNZ006-009>011-018-025>026-240000-
   North Central Minnesota

CITY           SKY/WX    TMP DP  RH WIND       PRES   REMARKS
BAUDETTE       SUNNY     72  50  45 NW6       30.24F
FLAG ISLAND    SUNNY     70  46  43 N5        30.23F
INTL FALLS     MOSUNNY   71  50  47 N6        30.23F
WASKISH        SUNNY     75  55  50 CALM      30.22S
BIG FORK       SUNNY     73  52  46 VRB1      30.23F
LONGVILLE      SUNNY     73  54  49 W6        30.22F
GRAND RAPIDS   MOSUNNY   73  52  46 NW6       30.22S
CRANE LAKE     MOSUNNY   66  50  55 CALM      30.24F
ORR            SUNNY     72  43  35 CALM      30.21S
COOK           MOSUNNY   72  48  43 N3        30.23S
$$
MNZ012-019>021-037-240000-
   Northeast Minnesota

CITY           SKY/WX    TMP DP  RH WIND       PRES   REMARKS
DULUTH         MOSUNNY   73  53  49 S3        30.20F
ELY            PTSUNNY   70  46  43 N5        30.22F
HIBBING        SUNNY     75  51  43 N8        30.22F
EVELETH        CLOUDY    72  52  49 N5        30.23F
DULUTH HARBOR  MOSUNNY   64  57  77 NE5       30.20F
TWO HARBORS    MOSUNNY   70  54  56 SE3       30.19F
SILVER BAY     SUNNY     66  55  68 SE6       30.19F
GRAND MARAIS     N/A     55  51  86 SW3       30.21F
G MARAIS ARPRT MOSUNNY   63  46  55 N3        30.23F
$$
MNZ029>031-032-039>041-046>048-054>057-064-240000-
   West Central Minnesota

CITY           SKY/WX    TMP DP  RH WIND       PRES   REMARKS
FERGUS FALLS   SUNNY     75  55  50 W5        30.22F
WHEATON        MOSUNNY   73  57  56 CALM      30.23F
MORRIS         SUNNY     79  57  47 NE3       30.21F
ALEXANDRIA     MOSUNNY   77  54  44 N7        30.24F
ELBOW LAKE     FAIR      75  57  53 N5        30.22F
WADENA         MOSUNNY   75  55  50 N8        30.23S
GLENWOOD       SUNNY     77  54  44 NW7       30.23F
APPLETON       SUNNY     81  52  36 NE7       30.21F
BENSON         SUNNY     79  55  44 CALM      30.22F
ORTONVILLE     MOSUNNY   81  54  39 NE3       30.21F
MADISON        MOSUNNY   81  55  41 NE9       30.21F
WILLMAR        FAIR      81  48  32 NW9       30.23F
$$
MNZ033>034-036-042>043-049>051-058-059-240000-
   Central Minnesota

CITY           SKY/WX    TMP DP  RH WIND       PRES   REMARKS
ST CLOUD       SUNNY     81  52  36 N7        30.20F
SAUK CENTRE    FAIR      77  54  45 N7        30.22F
PAYNESVILLE    PTSUNNY   76  50  39 NW7       30.22F
AITKIN         MOSUNNY   79  55  44 CALM      30.20F
PINE RIVER     MOSUNNY   75  55  50 N3        30.24F
BRAINERD       SUNNY     75  50  41 N7        30.22F
STAPLES        SUNNY     75  52  43 NW9       30.22F
LONG PRAIRIE   PTSUNNY   75  55  50 N5        30.23S
LITTLE FALLS   SUNNY     77  46  33 NW3       30.21F
LITCHFIELD     SUNNY     79  52  38 N10       30.22F
BUFFALO        SUNNY     78  49  35 NW6       30.21F
MAPLE LAKE     SUNNY     79  52  39 N7        30.21F
$$
MNZ037-044-045-052-053-240000-
   East Central Minnesota

CITY           SKY/WX    TMP DP  RH WIND       PRES   REMARKS
PRINCETON      MOSUNNY   79  54  41 NW10      30.20F
MORA           SUNNY     75  54  46 NW6       30.22S
CAMBRIDGE      SUNNY     81  59  47 W6        30.18F
RUSH CITY      SUNNY     77  54  43 CALM      30.20S
MOOSE LAKE     SUNNY     73  52  46 CALM      30.18F
HINCKLEY       FAIR      75  55  50 N5        30.19F
CLOQUET        SUNNY     75  45  33 NW7       30.21S
MCGREGOR       MOSUNNY   73  55  53 NW3       30.21F
$$
MNZ071>073-080-081-089-090-097-098-240000-
   Southwest Minnesota

CITY           SKY/WX    TMP DP  RH WIND       PRES   REMARKS
MONTEVIDEO     SUNNY     82  55  39 E8        30.22F
GRANITE FALLS  PTSUNNY   81  54  40 N7        30.22F
CANBY          SUNNY     80  53  39 NE6       30.22F
MARSHALL       SUNNY     79  54  41 N8        30.21F
REDWOOD FALLS  MOSUNNY   79  54  41 N6        30.20F
OLIVIA         SUNNY     77  52  41 N8        30.21S
PIPESTONE      SUNNY     79  50  36 E6        30.22F
WINDOM         SUNNY     79  52  38 N3        30.21F
WORTHINGTON    SUNNY     77  54  44 N7        30.23F
JACKSON        SUNNY     79  52  38 NE6       30.22F
TRACY          SUNNY     79  53  40 NE5       30.22F
SLAYTON        SUNNY     77  48  36 CALM      30.23F
$$
MNZ065>067-074>077-082>085-091>093-240000-
   South Central Minnesota

CITY           SKY/WX    TMP DP  RH WIND       PRES   REMARKS
MANKATO        MOSUNNY   79  52  38 N9        30.19F
NEW ULM        SUNNY     79  54  41 N6        30.19F
ST JAMES       MOSUNNY   81  50  34 NW7       30.21S
FAIRMONT       SUNNY     81  54  39 N6        30.20F
GLENCOE        SUNNY     80  45  29 N9        30.19F
FARIBAULT      SUNNY     79  48  34 CALM      30.19F
OWATONNA       SUNNY     79  52  38 N7        30.19F
WASECA         MOSUNNY   77  50  38 NW5       30.21F
ALBERT LEA     SUNNY     77  54  44 N3        30.19F
$$
MNZ078>079-086>088-094>096-240000-
   Southeast Minnesota

CITY           SKY/WX    TMP DP  RH WIND       PRES   REMARKS
ROCHESTER      SUNNY     77  53  43 NW9       30.20F
RED WING       SUNNY     81  46  30 NW6       30.16F
STANTON        PTSUNNY   81  52  36 NW8       30.16F
DODGE CENTER   MOSUNNY   77  54  44 N6        30.20S
WINONA         PTSUNNY   79  54  41 N8        30.16F
AUSTIN         SUNNY     79  50  36 N6        30.18F
PRESTON        MOSUNNY   75  60  58 N7        30.19F
$$
ABBREVIATIONS USED IN REMARKS
   TC - TEMPERATURES IN CELSIUS
  WCI - WIND CHILL INDEX
   HX - HEAT INDEX
  VSB - VISIBILITY
$$


USA.gov is the U.S. government's official web portal to all federal, state and local government web resources and services.